星链-30452 (STARLINK-30452 )

导读 | 豆包AI

STARLINK-30452是美国SpaceX公司星链(Starlink)星座中的一颗低轨通信卫星,于2023年9月24日发射升空。它属于星链第二代卫星组网的组成部分,依托星链星座的激光星间链路技术,为全球提供高速低延迟宽带互联网服务,尤其能够覆盖偏远、传统网络基础设施不足区域,推动了全球卫星互联网的发展。

基本信息
目录编号:
57925
目录名称:
STARLINK-30452
国际标识:
2023-147N
轨道中心:
EARTH
卫星名称:
星链-30452
卫星全名:
星链-30452 (STARLINK-30452 )
卫星状态:
在轨 (已飞行949 天)
发射日期:
2023-09-24 UTC
国别 :
美国 (US)
星等 :
--
轨道信息
数据来源 国际轨道数据 AOE轨道数据
星历时间 2026-04-29T19:58:11+0800
1天前
查看轨道信息
2026-04-26T23:00:00+0800
4天前
查看轨道信息
半长轴 6861.181km 6861.208km
偏心率 0.0002082 0.000162
轨道倾角 43.009° 43.004°
近地点辐角 252.054° 252.647°
升交点赤经 38.681° 54.914°
平近点角 108.009° 125.409°
近地点 481.615km 481.959km
远地点 484.473km 484.183km
周期 94.267分钟 94.267分钟
每日圈数 15.275819 15.275728
详细信息
固有亮度:
5
最大亮度:
0.3
卫星平台:
Starlink v2.0 mini
覆盖范围:
全球
运营商:
太空探索技术公司
运营商所在国:
美国
制造商(研发单位):
太空探索技术公司
制造商所在国:
美国
使用方式:
暂无
卫星简介
星链(Starlink)计划是由太空探索技术公司(SpaceX)提出的一个巨型低轨卫星互联网星座项目,计划在2019年至2024年间在太空搭建由约1.2万颗卫星组成的“星链”网络,其中1584颗将部署在地球上空550千米处的近地轨道,并从2020年开始工作。该卫星仍在工作。
2D轨道图
3D轨道图
轨道高度分析图
轨道倾角分析图
轨道综合分析图
查看轨道综合分析图